Location: Daytona Beach
(29.2106°N, 81.0231°W)
Time: 08:20:11
(UTC-04:00)

ITAMSAT 1 - Visible Passes

Search period start: 21 September 2021 00:00
Search period end: 01 October 2021 00:00
Orbit: 783 x 797 km, 98.9° (Epoch: 21 September)

Date Brightness Start Highest point End Pass type
(mag) Time Alt. Az. Time Alt. Az. Time Alt. Az.
21 Sep 9.0 20:25:46 10° S 20:30:38 41° W 20:35:31 10° NNW visible
22 Sep 7.7 19:55:56 10° SSE 20:01:07 87° WSW 20:06:20 10° NNW visible
23 Sep 10.5 21:08:19 10° SW 21:11:17 15° W 21:14:15 10° WNW visible
24 Sep 9.5 20:37:03 10° SSW 20:41:38 32° W 20:46:14 10° NW visible
25 Sep 8.1 20:06:57 10° S 20:12:06 67° WSW 20:17:14 10° NNW visible
26 Sep 7.7 19:37:35 10° SSE 19:42:39 59° ENE 19:47:44 10° N visible
26 Sep 10.7 21:20:43 10° WSW 21:22:20 11° W 21:23:57 10° WNW visible
27 Sep 9.9 20:48:28 10° SSW 20:52:39 25° W 20:56:50 10° NW visible
28 Sep 8.5 20:18:03 10° S 20:23:04 51° W 20:28:06 10° NNW visible
29 Sep 7.6 19:48:26 10° SSE 19:53:36 77° ENE 19:58:46 10° N visible
30 Sep 10.3 21:00:05 10° SW 21:03:41 19° W 21:07:18 10° NW visible
